Hourly Data Report for September 15, 2017

All times are specified in Local Standard Time (LST). Add 1 hour to adjust for Daylight Saving Time where and when it is observed.

OTTAWA INTL A
ONTARIO

45°19'00.000" N
75°40'00.000" W
114.90 m
6106001
71628
YOW

Download Data

Hourly Data (September 2017)
Hourly Data Report for September 15, 2017
Temp Definition
°C
Dew Point Temp Definition
°C
Rel Hum Definition
%
Wind Dir Definition
10's deg

Wind Spd Definition
km/h
Visibility Definition
km
Stn Press Definition
kPa
Hmdx Definition


Wind Chill Definition


Weather Definition


TIME
00:00 Legend Double Dagger 15.5 14.0 91 28 5 24.1 100.07     LegendNANA
01:00 Legend Double Dagger 13.8 12.0 89 26 5 24.1 100.12     Mainly Clear
02:00 Legend Double Dagger 14.8 13.4 91 29 5 24.1 100.16     LegendNANA
03:00 Legend Double Dagger 14.2 12.9 92 31 10 24.1 100.17     LegendNANA
04:00 Legend Double Dagger 15.4 14.1 92 2 5 24.1 100.20     Mainly Clear
05:00 Legend Double Dagger 14.8 13.9 94 3 9 24.1 100.27     LegendNANA
06:00 Legend Double Dagger 14.6 13.7 94 4 10 24.1 100.34     LegendNANA
07:00 Legend Double Dagger 16.6 15.3 92 7 10 24.1 100.39     Mainly Clear
08:00 Legend Double Dagger 17.6 15.9 90 8 11 24.1 100.46     LegendNANA
09:00 Legend Double Dagger 19.7 17.0 84 10 5 24.1 100.51     LegendNANA
10:00 Legend Double Dagger 21.8 17.8 78 5 4 24.1 100.51 28   Mainly Clear
11:00 Legend Double Dagger 24.2 18.4 70 1 3 24.1 100.49 31   LegendNANA
12:00 Legend Double Dagger 25.2 18.2 65 22 6 24.1 100.49 31   LegendNANA
13:00 Legend Double Dagger 25.9 16.0 54 20 7 24.1 100.47 31   Clear
14:00 Legend Double Dagger 27.0 15.9 50 27 5 24.1 100.45 32   LegendNANA
15:00 Legend Double Dagger 27.0 16.4 52 15 4 24.1 100.43 32   LegendNANA
16:00 Legend Double Dagger 26.3 17.3 57 16 8 24.1 100.43 32   Clear
17:00 Legend Double Dagger 25.3 19.2 69 16 6 24.1 100.46 32   LegendNANA
18:00 Legend Double Dagger 24.1 17.5 66 18 4 24.1 100.49 30   LegendNANA
19:00 Legend Double Dagger 22.4 18.0 76 17 7 24.1 100.52 28   Mainly Clear
20:00 Legend Double Dagger 20.7 18.4 87 17 10 24.1 100.55 27   LegendNANA
21:00 Legend Double Dagger 19.9 18.5 91 20 7 24.1 100.59     LegendNANA
22:00 Legend Double Dagger 17.4 16.9 96 17 5 24.1 100.60     Clear
23:00 Legend Double Dagger 17.3 17.0 98 18 4 24.1 100.62     LegendNANA

Notes on Data Quality.

Legend

  • E = Estimated
  • M = Missing
  • NA = Not Available
  • ‡ = Partner data that is not subject to review by the National Climate Archives
Date modified: